Location: Brazeau Presbyterian Church
(37.6610°N, 89.6507°W)
Time: 01:52:30
(UTC+00:00)

Daily predictions for brighter satellites

Satellite Brightness Start Highest point End
(mag) Time Altitude Azimuth Time Altitude Azimuth Time Altitude Azimuth
NOSS 3-4 (A) 4.3 01:41:51 10° NW 01:49:04 74° WSW 01:57:18 10° SSE
NOSS 3-4 (C) 4.2 01:41:54 10° NW 01:49:06 75° WSW 01:57:17 10° SSE
Cosmos 1666 Rocket 3.6 01:50:21 10° N 01:54:41 88° E 01:59:02 10° S
COSMOS 2406 3.2 01:49:12 10° SSW 01:54:56 80° ESE 02:00:42 10° NNE
Cosmos 1766 3.5 01:51:24 10° N 01:55:01 45° E 01:58:37 10° SSE
Cosmos 1092 Rocket 4.1 01:49:56 10° S 01:56:15 84° E 02:02:37 10° N
Cosmos 1674 2.8 01:53:59 10° SSE 01:57:17 45° E 02:00:36 10° NNE
Cosmos 1980 Rocket 2.3 01:51:54 10° NNW 01:57:35 69° ENE 02:03:12 10° SSE
CSL-04 Debris 4.2 01:52:39 10° SSE 01:58:05 85° ENE 02:03:30 10° NNW
Cosmos 2322 Rocket 4.4 01:56:42 10° NNE 01:58:07 11° NE 01:59:33 10° ENE
SPOT 1/Viking Rocket 4.5 01:54:55 10° S 01:59:52 49° W 02:04:50 10° NNW
Cosmos 1763 Rocket 4.1 01:55:08 10° N 02:00:07 42° ENE 02:04:59 10° SE
ATLAS CENTAUR R/B 2.9 02:01:56 10° SE 02:02:58 11° ESE 02:04:01 10° E
USA 234 3.3 02:00:13 10° NE 02:06:40 60° SE 02:13:05 10° SSW
Cosmos 1933 Rocket 4.5 02:07:38 10° NNE 02:11:38 32° ENE 02:15:12 12° SE
IRIDIUM 114 4.4 02:08:16 10° N 02:13:27 63° E 02:18:36 10° SSE
Resurs 01 Rocket 2.2 02:11:01 10° S 02:15:22 59° W 02:19:44 10° NNW
Cosmos 1908 4.4 02:14:11 10° NNE 02:17:10 24° ENE 02:19:19 14° ESE
Terra 3.3 02:16:12 11° ESE 02:19:22 21° ENE 02:22:51 10° NNE
IRIDIUM 103 4.3 02:17:23 10° N 02:22:38 78° E 02:27:49 10° S
Lacrosse 5 rocket 4.1 02:25:07 10° WSW 02:25:45 10° WSW 02:26:23 10° SW
ARGOS Delta rocket 4.2 02:23:05 14° SE 02:26:39 43° ENE 02:30:49 10° N
Cosmos 1470 2.9 02:23:13 10° N 02:26:49 50° E 02:29:33 16° SSE
CZ-4 R/B 4.0 02:27:26 10° SW 02:30:03 17° W 02:32:43 10° NW
Ariane Rocket 4.4 02:27:25 13° ESE 02:30:37 24° ENE 02:34:36 10° NNE
CZ-4B R/B 4.4 02:26:13 10° SSW 02:31:07 39° W 02:36:04 10° NNW
Cosmos 468 Rocket 4.3 02:26:06 10° N 02:31:13 53° ENE 02:35:01 17° SE
KORONAS-FOTON 4.0 02:30:04 10° SSW 02:33:45 70° W 02:37:29 10° N
Cosmos 1842 3.9 02:35:54 10° SSW 02:39:27 52° W 02:43:02 10° N
SJ 16-02 3.3 02:40:03 13° E 02:40:03 13° E 02:41:45 10° ENE
ATLAS 2AS CENTAUR R/B 4.3 02:39:23 10° N 02:44:38 23° NE 02:49:43 10° E
Cosmos 2360 Rocket 3.8 02:44:45 10° N 02:48:58 21° NE 02:52:15 13° E
IRS-1C Rocket 4.1 02:45:32 19° SSE 02:49:22 69° ENE 02:54:36 10° N
In-Cosmos 22 4.1 02:44:19 10° S 02:49:57 74° E 02:55:30 10° NNE
Cosmos 540 Rocket 3.4 02:45:30 10° NNW 02:50:41 89° WSW 02:54:15 20° SSE
RESURS DK-1 3.9 02:50:40 10° N 02:53:59 23° ENE 02:55:35 19° E
SPOT 3 Rocket 4.3 02:51:37 22° ESE 02:54:17 36° ENE 02:58:57 10° N
Meteor 1-15 Rocket 4.5 02:52:35 10° N 02:58:01 52° ENE 03:01:06 25° SE
Cosmos 968 Rocket 4.1 02:57:17 25° SE 02:59:22 35° E 03:04:02 10° NE
SL-16 R/B 2.6 02:54:39 10° NNW 03:00:11 52° ENE 03:03:14 26° SE
Cosmos 2333 Rocket 3.7 02:57:29 10° N 03:02:08 25° ENE 03:05:07 17° E
MOS 1 Rocket 4.0 02:59:27 25° SE 03:02:19 49° ENE 03:07:26 10° N
Cosmos 1741 Rocket 4.1 02:58:34 17° S 03:02:26 54° ESE 03:07:35 10° NNE
Okean-O 3.6 02:58:43 12° S 03:02:30 44° W 03:06:44 10° NNW
Cosmos 1707 4.3 03:01:14 10° SW 03:04:29 31° WNW 03:07:44 10° NNW
Cosmos 1733 Rocket 4.3 03:01:07 10° NNE 03:04:47 25° ENE 03:05:48 23° E
SeaSat 1 2.6 03:02:21 27° SE 03:04:56 61° ENE 03:09:46 10° NNW
Atlas Centaur 2 3.3 03:01:38 10° WSW 03:09:26 50° S 03:14:18 24° SE
Cosmos 1758 4.1 03:06:02 10° NNE 03:09:36 33° ENE 03:10:17 31° E
USA 245 2.9 03:10:21 44° SSE 03:11:19 81° ENE 03:15:22 10° N
SPOT 5 3.4 03:14:17 19° SSW 03:17:04 45° W 03:21:15 10° NNW
IRS-1A Rocket 4.4 03:14:38 22° S 03:18:15 68° WSW 03:23:44 10° NNW
SL-08 ROCKET BODY 4.5 03:14:48 14° S 03:20:08 83° W 03:26:15 10° N
Cosmos 2228 Rocket 3.1 03:18:36 36° SSE 03:20:21 66° E 03:24:54 10° NNE
Okean O Rocket 4.2 03:20:45 10° WSW 03:22:57 14° W 03:25:08 10° WNW
Tiangong -1.6 03:19:58 10° WNW 03:22:45 46° SW 03:22:45 46° SW
Spot 1 4.4 03:22:32 10° NNE 03:27:05 57° ESE 03:28:28 41° SSE
Cosmos 1356 Rocket 3.3 03:25:56 44° S 03:27:12 76° E 03:31:24 10° NNE
Cosmos 1869 Rocket 4.0 03:23:50 10° NNW 03:28:12 58° W 03:30:17 29° SSW
Meteor 1-12 Rocket 4.3 03:24:09 10° N 03:30:12 78° E 03:32:54 35° SSE
S3M 4.1 03:24:38 10° N 03:31:00 78° W 03:34:41 27° S
Cosmos 1400 Rocket 3.7 03:28:43 18° SW 03:31:16 44° WNW 03:34:59 10° N
ERS-1 Rocket 3.4 03:30:43 27° S 03:33:19 57° W 03:38:16 10° NNW
Cosmos 1655 Rocket 4.1 03:34:27 21° S 03:38:54 80° W 03:45:20 10° N
Cosmos 841 Rocket 3.5 03:34:53 10° NNW 03:40:08 75° WSW 03:41:59 41° S
ATLAS CENTAUR R/B 2.3 03:36:54 10° SW 03:40:10 39° NW 03:43:31 10° NNE
Cosmos 2322 Rocket 2.2 03:37:27 10° NNW 03:43:09 74° ENE 03:44:58 44° SE
Cosmos 1300 2.4 03:39:42 10° N 03:43:15 89° N 03:43:15 89° N
Spot 2 Rocket 3.8 03:42:27 35° SSW 03:44:29 62° W 03:49:31 10° NNW
Aureole 3 3.1 03:48:02 75° ESE 03:48:07 76° E 03:52:33 10° N
Cosmos 1315 Rocket 3.5 03:49:43 40° ENE 03:49:43 40° ENE 03:52:52 10° NNE
Meteor 2-10 Rocket 3.9 03:49:06 10° NNW 03:54:34 62° W 03:56:28 38° SSW
Cosmos 1953 3.7 03:52:00 10° NNE 03:54:38 26° ENE 03:54:38 26° ENE
Cosmos 1862 Rocket 3.8 03:55:14 48° SW 03:56:18 67° W 04:00:41 10° N
Terra 2.9 03:54:54 27° SW 03:56:41 36° W 04:01:02 10° NNW
Meteor 1-21 4.4 03:54:03 30° SSW 03:57:01 71° W 04:02:51 10° N
Cosmos 1244 Rocket 4.5 03:56:24 45° SSE 03:58:17 67° E 04:04:31 10° NNE
Landsat 5 4.0 04:01:06 10° N 04:05:03 54° WNW 04:05:57 44° WSW
COSMOS 2428 4.4 04:03:00 10° N 04:07:20 22° NE 04:09:13 19° E
Cosmos 2219 Rocket 2.7 04:03:17 10° N 04:08:45 46° ENE 04:09:56 40° E
Okean 3 3.8 04:08:32 54° WSW 04:08:57 57° W 04:13:03 10° N
Ariane Rocket 4.1 04:07:33 29° SW 04:09:17 37° W 04:13:59 10° NNW
CZ-2C R/B 4.1 04:06:20 10° NNE 04:10:01 46° ENE 04:10:01 46° ENE
BlueWalker 3 4.0 04:15:31 18° NE 04:15:31 18° NE 04:16:34 10° NE
SJ 16-02 2.1 04:16:45 39° WSW 04:17:45 47° WNW 04:21:56 10° N
Meteor 1-4 Rocket 4.3 04:21:23 25° NNW 04:21:23 25° NNW 04:23:03 10° N
H-2A R/B 4.2 04:22:54 24° ENE 04:22:54 24° ENE 04:26:01 10° NNE
COSMOS 2455 3.5 04:24:42 37° E 04:24:42 37° E 04:29:32 10° NE
CZ-4C R/B 3.5 04:28:06 20° ENE 04:28:06 20° ENE 04:30:04 10° NE
Cosmos 1346 Rocket 4.2 04:23:00 10° NNW 04:26:15 30° W 04:26:15 30° W
SL-08 R/B 4.3 04:25:30 57° S 04:26:52 89° E 04:32:59 10° N
ARIANE 5 R/B 3.1 04:31:12 51° NE 04:31:12 51° NE 04:34:56 10° N
DNEPR-1 R/B 4.3 04:24:46 10° NNW 04:31:03 61° NE 04:31:50 55° E
RESURS DK-1 4.0 04:28:16 10° NW 04:31:10 24° W 04:31:10 24° W
Cosmos 2360 Rocket 2.5 04:27:46 10° NNW 04:33:17 54° WSW 04:34:00 51° SW
ATLAS 2AS CENTAUR R/B 2.5 04:29:29 10° NW 04:36:15 78° WSW 04:37:28 60° S
Cosmos 1570 Rocket 4.4 04:35:38 10° N 04:40:51 50° ENE 04:41:05 50° ENE
SL-16 R/B 4.0 04:39:51 10° NW 04:43:47 20° W 04:45:05 18° WSW
Cosmos 1455 3.7 04:42:01 10° NNW 04:44:05 33° NNW 04:44:05 33° NNW
SL-24 R/B - RUBIN 2 4.4 04:39:36 10° NNW 04:46:09 73° ENE 04:47:01 63° ESE
Cosmos 2333 Rocket 2.7 04:41:07 10° NW 04:46:36 46° WSW 04:47:07 45° WSW
USA 281 3.2 04:45:41 58° SE 04:47:03 76° ENE 04:53:38 10° NNW
Okean 1-7 4.2 04:47:58 34° W 04:48:08 35° WNW 04:52:07 10° NNW
CZ-2C R/B 3.2 04:50:23 69° ESE 04:50:41 71° E 05:04:16 10° N
GP-B 3.5 04:49:37 10° N 04:53:24 58° NW 04:53:24 58° NW
Cosmos 1908 Rocket 4.3 04:52:08 10° NNW 04:55:38 48° NW 04:55:38 48° NW
Atlas Centaur 2 3.9 04:51:00 10° W 04:56:31 31° SW 04:56:31 31° SW
Cosmos 1782 Rocket 4.2 04:54:52 10° N 04:58:10 51° NNE 04:58:10 51° NNE
Cosmos 2237 Rocket 3.7 05:03:19 10° N 05:08:00 26° ENE 05:09:20 24° E
Meteor 1-24 Rocket 4.1 05:08:46 52° E 05:08:46 52° E 05:14:01 10° NNE
Cosmos 2227 Rocket 3.7 05:10:41 24° E 05:10:41 24° E 05:13:56 10° NE
Cosmos 1745 Rocket 4.1 05:08:42 60° SW 05:09:42 69° W 05:16:03 10° N
Cosmos 2322 3.6 05:04:49 10° NNW 05:10:29 86° NE 05:10:29 86° NE
Cosmos 839 Rocket 4.1 05:05:34 10° NW 05:11:56 57° WSW 05:12:09 56° WSW
Cosmos 2208 Rocket 4.1 05:09:21 10° NNW 05:14:06 70° NNE 05:14:06 70° NNE
H-2A R/B 4.2 05:12:51 10° NE 05:14:25 18° ENE 05:14:25 18° ENE
Cosmos 1300 Rocket 4.4 05:13:19 10° N 05:16:26 47° NNW 05:16:26 47° NNW
Cosmos 1503 Rocket 4.3 05:20:32 58° ENE 05:20:32 58° ENE 05:25:01 10° NNE
ALOS 2 3.4 05:23:09 48° NNE 05:23:09 48° NNE 05:26:27 10° N
Nadezhda 1 Rocket 4.1 05:17:48 10° NNW 05:23:57 60° W 05:24:27 58° WSW
Cosmos 2322 Rocket 4.4 05:23:52 10° WNW 05:26:26 13° W 05:26:46 13° W
Cosmos 2297 Rocket 2.2 05:29:40 73° NE 05:29:40 73° NE 05:34:52 10° NNE
Cosmos 2181 Rocket 4.4 05:25:01 10° N 05:30:58 48° E 05:31:22 47° E
CENTAUR R/B 3.4 05:33:38 32° E 05:33:38 32° E 05:37:57 10° NE
CZ-3 Stage 3 3.8 05:09:12 10° W 05:35:05 49° SSW 05:35:53 48° SSW
Meteor 2-5 Rocket 3.7 05:41:48 79° W 05:41:50 79° W 05:47:44 10° N
Cosmos 371 Rocket 4.2 05:50:32 41° NW 05:50:32 41° NW 05:54:45 10° N
COSMOS 2428 3.2 05:46:21 10° NNW 05:51:11 50° W 05:51:11 50° W
Cosmos 2219 Rocket 3.8 05:48:01 10° NW 05:51:37 22° W 05:51:37 22° W
Cosmos 1354 Rocket 4.3 06:01:43 65° NW 06:01:43 65° NW 06:06:36 10° NNE
Cosmos 2263 Rocket 3.6 06:03:48 26° E 06:03:48 26° E 06:07:32 10° NE
COSMOS 2455 4.2 06:07:48 26° W 06:09:56 33° NW 06:15:19 10° N
NOSS 0 Rocket 4.1 06:04:14 10° NNW 06:10:02 59° W 06:10:02 59° W
SL-12 R/B(2) 4.0 06:09:01 62° S 06:10:27 75° ESE 06:19:37 10° NE
Cosmos 1295 Rocket 4.3 06:12:48 74° ESE 06:12:53 74° E 06:19:00 10° N
CZ-4C R/B 3.4 06:13:08 25° WNW 06:14:07 27° NW 06:18:40 10° NNE
NOSS 3-2 (A) 3.8 06:18:59 43° E 06:18:59 43° E 06:23:21 10° NE
Nadezhda 3 Rocket 4.3 06:13:25 10° N 06:19:32 53° E 06:20:15 51° ESE
Cosmos 2184 Rocket 3.9 06:22:41 79° SW 06:23:01 83° W 06:29:26 10° N
Meteor 2-11 Rocket 4.3 06:27:04 74° ESE 06:27:14 74° E 06:33:18 10° N
Okean 1 Rocket 4.0 06:24:51 10° N 06:27:57 46° N 06:27:57 46° N
Nimbus 7 Rocket 4.5 06:26:06 10° NNE 06:32:09 66° ESE 06:32:23 65° ESE
Cosmos 292 Rocket 4.4 06:38:10 49° ENE 06:38:10 49° ENE 06:41:56 10° NNE
Cosmos 967 Rocket 4.3 06:39:22 77° SSE 06:39:46 81° ESE 06:46:16 10° NNE
Cosmos 2154 Rocket 3.9 06:39:30 72° WSW 06:39:52 75° W 06:46:10 10° N
Cosmos 2327 Rocket 4.4 06:44:23 69° SE 06:44:49 72° E 06:50:53 10° N
SL-16 R/B 2.9 06:39:39 10° N 06:45:09 47° ENE 06:46:35 39° ESE
SL-4 R/B 3.7 06:42:57 10° NW 06:45:06 29° NW 06:45:06 29° NW
Cosmos 990 Rocket 4.3 06:48:20 58° NW 06:48:20 58° NW 06:53:04 10° N
Cosmos 1975 Rocket 3.9 06:49:56 45° NE 06:49:56 45° NE 06:53:17 10° NNE
Cosmos 2082 3.7 06:51:06 68° ESE 06:51:06 68° ESE 06:56:36 10° NNE
H-2A R/B 3.8 06:48:29 10° NNW 06:51:12 23° NW 06:51:12 23° NW
Cosmos 2237 Rocket 3.0 06:46:53 10° NW 06:51:08 38° WNW 06:51:08 38° WNW
Cosmos 2227 Rocket 3.0 06:52:28 38° WNW 06:53:07 40° WNW 06:58:26 10° N
IDEFIX/ARIANE 42P 3.9 06:52:31 10° NE 06:57:01 28° E 06:57:28 28° ESE
SL-8 Rocket 4.3 06:57:09 48° SE 06:58:10 53° E 07:04:10 10° NNE
Meteor 1-11 4.4 07:04:41 61° SE 07:05:16 65° E 07:11:01 10° NNE
Cosmos 1455 Rocket 3.5 07:02:02 10° N 07:05:42 60° N 07:05:42 60° N
CZ-2D R/B 3.6 07:02:22 10° NE 07:06:39 24° E 07:07:38 23° ESE
Cosmos 962 Rocket 4.4 07:06:13 68° S 07:07:08 87° E 07:13:31 10° N
COBE Rocket 4.5 07:02:35 10° NNE 07:07:36 50° E 07:07:50 49° ESE
Meteor 1-21 Rocket 4.3 07:07:55 61° W 07:08:13 62° W 07:13:53 10° N
Cosmos 1538 Rocket 3.9 07:03:15 10° NNW 07:08:16 81° NW 07:08:16 81° NW
Celestis-02/Orion 38 4.5 07:11:02 82° WSW 07:11:04 82° WSW 07:16:29 10° NNW
Cosmos 2297 Rocket 4.4 07:11:25 12° W 07:13:54 15° NW 07:17:02 10° NNW
Cosmos 2219 3.7 07:15:09 46° W 07:15:46 48° WNW 07:21:12 10° N
Cosmos 1025 Rocket 4.5 07:17:45 29° NW 07:17:45 29° NW 07:20:45 10° NNW
Cosmos 1606 4.0 07:17:18 10° N 07:19:53 34° NE 07:19:53 34° NE
Cosmos 372 Rocket 3.9 07:22:07 78° W 07:22:16 79° WNW 07:27:32 10° NNE
CENTAUR R/B 3.5 07:20:44 28° W 07:22:48 35° NW 07:28:58 10° NNE
Aureole 1 Rocket 4.3 07:23:52 29° NNW 07:23:52 29° NNW 07:26:34 10° N
NPP 4.1 07:18:40 10° NNE 07:23:55 51° E 07:24:45 46° SE
Cosmos 2341 Rocket 3.9 07:27:49 62° SSW 07:28:55 80° W 07:35:10 10° N
USA 238 DEB 4.0 07:28:50 39° SE 07:29:58 43° ESE 07:36:01 10° NE
USA 238 4.0 07:28:52 39° SE 07:30:01 42° ESE 07:36:04 10° NE
Helios 1A Rocket 3.9 07:33:25 37° NW 07:33:25 37° NW 07:35:52 10° NNW
ADEOS II 3.5 07:28:09 10° NE 07:32:38 28° E 07:34:18 23° SE
Cosmos 1461 3.4 07:36:27 50° NNW 07:36:27 50° NNW 07:39:42 10° NNE
Cosmos 923 Rocket 4.1 07:31:17 10° NNW 07:36:33 73° ENE 07:37:48 51° SE
Cosmos 1937 Rocket 3.5 07:38:33 61° W 07:39:03 64° WNW 07:44:16 10° NNE
Cosmos 864 Rocket 4.4 07:38:09 55° SSW 07:39:38 82° W 07:46:00 10° N
MOZ.5/SAFIR/RUBIN 5/SL-8 3.6 07:39:56 83° S 07:40:06 89° WSW 07:44:46 10° NNW
Meteor 2-1 Rocket 4.2 07:35:42 10° NNW 07:41:35 77° W 07:42:41 59° SSW
Cosmos 1898 Rocket 4.1 07:42:11 40° W 07:42:42 42° WNW 07:47:37 10° N
Resurs 1-4 Rocket 2.3 07:40:54 10° NNE 07:46:09 63° ESE 07:47:22 49° SSE
Cosmos 2263 Rocket 3.0 07:45:28 34° W 07:46:37 38° WNW 07:51:47 10° N
Cosmos 1821 Rocket 3.9 08:00:01 42° S 08:02:14 85° E 08:08:23 10° N
Cosmos 2218 Rocket 4.3 08:03:34 41° SW 08:05:14 52° W 08:11:17 10° N
Cosmos 1844 Rocket 2.9 08:04:20 39° SSE 08:06:11 60° ESE 08:11:40 10° NNE
Meteor 1-27 4.5 08:00:36 10° N 08:06:25 70° E 08:09:44 26° SSE
Delta 2 Rocket 3.6 08:07:47 51° SE 08:07:47 51° SE 08:11:09 10° E
Cosmos 1869 4.2 08:03:39 10° NNW 08:06:12 34° NW 08:06:12 34° NW
ALOS 3.5 08:07:01 10° NNE 08:11:14 34° E 08:13:24 22° SE
Cosmos 1437 Rocket 2.5 08:12:41 80° S 08:12:54 89° ESE 08:16:43 10° N
NOSS 3-2 (C) 3.8 08:12:44 33° W 08:14:34 44° NW 08:20:15 10° NNE
Cosmos 1544 Rocket 4.1 08:13:53 10° NNW 08:18:02 41° W 08:18:03 41° W
Cosmos 1680 Rocket 3.4 08:13:34 10° NNW 08:18:42 62° WSW 08:20:14 43° SSW
USA 267 3.3 08:14:23 10° NE 08:20:54 70° SE 08:24:01 33° SSW
Cosmos 2112 Rocket 3.9 08:15:49 10° NNW 08:20:59 72° WSW 08:23:05 36° S
Cosmos 1818 3.4 08:15:51 10° NW 08:21:18 72° WSW 08:24:47 22° SSE
Cosmos 2228 3.1 08:17:29 10° NNW 08:21:40 51° W 08:21:59 50° WSW
MSX 4.1 08:17:53 10° N 08:23:27 53° WNW 08:25:34 35° SW
COSMOS 2441 4.4 08:22:53 10° N 08:27:40 68° WNW 08:29:13 41° SW
SL-16 R/B 3.5 08:24:37 10° NW 08:28:24 22° W 08:28:24 22° W
Cosmos 1603 3.9 08:28:22 10° NNW 08:34:07 73° ENE 08:39:48 10° SSE
SL-16 R/B 2.8 08:29:13 10° SSE 08:35:25 70° ENE 08:41:37 10° N
IDEFIX/ARIANE 42P 3.6 08:31:52 10° N 08:36:27 32° WNW 08:38:13 26° WSW
CZ-2C R/B 2.9 08:37:16 34° SSW 08:39:07 48° W 08:44:15 10° NNW
Cosmos 1934 Rocket 4.2 08:36:19 19° S 08:40:59 73° E 08:47:20 10° N
SEDSat Delta rocket 3.7 08:41:06 31° S 08:41:06 31° S 08:44:34 10° ESE
Cosmos 2123 Rocket 4.4 08:36:08 10° N 08:42:16 62° E 08:48:24 10° SSE
CZ-2C R/B 3.5 08:37:36 10° N 08:42:44 48° WNW 08:44:53 30° SW
Cosmos 1943 3.2 08:38:25 10° NNW 08:43:54 57° WSW 08:47:43 20° S
CZ-2D R/B 2.9 08:41:51 10° N 08:46:43 37° WNW 08:48:55 26° WSW
FENGYUN 3A 3.9 08:44:53 10° N 08:50:08 55° WNW 08:52:54 27° SW
Cosmos 1606 Rocket 3.5 08:49:14 10° NNW 08:53:39 68° W 08:56:15 24° S
Envisat 3.8 08:48:57 10° NNE 08:53:51 47° E 08:58:28 11° S
Cosmos 921 Rocket 2.8 08:50:16 10° NNW 08:54:29 82° WSW 08:57:55 15° S
ASTEX 1 3.3 08:52:23 23° S 08:55:20 66° W 09:00:11 10° NNW
Cosmos 1048 Rocket 4.2 08:50:13 10° NNW 08:55:27 73° ENE 09:00:43 10° SSE
Cosmos 1125 Rocket 3.5 08:57:57 22° SSW 09:01:21 90° ESE 09:06:40 10° NNE
CZ-2C R/B 3.6 09:00:26 10° NNE 09:04:37 35° E 09:08:50 10° SSE
Orbus 7S? 3.6 09:02:42 10° NW 09:06:04 70° SW 09:12:58 10° SE
Cosmos 1726 Rocket 3.6 09:04:45 10° NNW 09:09:07 62° W 09:12:35 16° S
Cosmos 1238 Rocket 3.6 09:06:08 10° N 09:09:15 38° E 09:12:04 10° SSE
Iridium 2 3.2 09:09:46 35° W 09:09:52 36° W 09:12:11 10° NNW
Cosmos 494 Rocket 4.1 09:06:16 10° NNW 09:11:23 55° WSW 09:16:29 10° S
ADEOS II 3.0 09:07:34 10° N 09:12:11 32° WNW 09:15:10 19° WSW
Cosmos 1812 2.4 09:08:40 10° N 09:12:15 89° NE 09:15:37 11° S
Cosmos 2150 Rocket 4.4 09:09:21 13° S 09:13:57 62° ESE 09:19:10 10° NNE
Cosmos 2058 2.8 09:12:18 19° SSW 09:15:09 77° W 09:19:14 10° N
IRAS Rocket 4.3 09:11:07 10° N 09:16:34 67° WNW 09:20:58 16° SSW
Cosmos 1844 4.5 09:15:24 18° WSW 09:19:09 39° WNW 09:24:34 10° N
SAR-Lupe-4 4.1 09:17:15 10° N 09:20:38 41° WNW 09:22:35 21° SW
USA 81 4.0 09:18:29 10° N 09:23:43 69° W 09:28:56 10° S
YAOGAN 6 3.4 09:20:57 10° NNE 09:24:00 41° E 09:27:01 10° S
Resurs 1-4 Rocket 4.0 09:22:18 10° NNW 09:25:22 16° WNW 09:28:26 10° W
ATLAS 5 CENTAUR R/B 1.4 09:25:49 15° SSW 09:28:17 50° ESE 09:31:35 10° NE
Iridium 4 Rocket 3.2 09:23:53 10° N 09:28:23 74° W 09:33:17 10° S
NOSS 2-2 (E) 3.8 09:25:46 13° S 09:28:46 41° ESE 09:31:46 10° NE
Timation 2 Rocket 4.2 09:23:52 15° SW 09:29:24 65° WNW 09:35:48 10° NNE
UNK 3.9 09:26:21 10° S 09:30:50 53° W 09:35:21 10° NNW
Cosmos 1602 Rocket 4.5 09:33:55 10° SSE 09:38:13 51° E 09:42:32 10° NNE
Cosmos 724 4.3 09:33:11 10° NNW 09:39:00 85° WSW 09:44:53 10° SSE
Thor Agena Rocket 3.9 09:38:39 10° NNE 09:43:56 68° ESE 09:49:09 10° S
Cosmos 1544 3.2 09:42:30 15° SW 09:44:09 30° W 09:46:32 10° NNW
NOAA 11 4.3 09:40:10 10° N 09:45:35 63° WNW 09:50:57 10° SSW
NOSS 2-3 (D) 3.5 09:42:03 10° SSW 09:45:42 61° ESE 09:49:26 10° NE
Cosmos 2058 Rocket 3.4 09:43:09 10° NNW 09:47:22 44° W 09:51:31 10° SSW
Delta 2 Rocket 3.8 09:43:42 10° W 09:47:32 42° SSW 09:51:44 10° SE
ALOS 3.8 09:44:44 10° NNW 09:48:11 21° WNW 09:51:37 10° WSW
Cosmos 1844 Rocket 4.4 09:46:35 10° W 09:50:28 19° NW 09:54:21 10° N
Cosmos 1758 Rocket 3.7 09:46:02 10° S 09:50:28 84° E 09:54:54 10° N
Cosmos 2298 Rocket 4.3 09:49:24 10° SSW 09:54:35 54° WNW 09:59:49 10° N
Cosmos 1666 4.3 09:51:41 10° SSE 09:54:44 31° E 09:57:48 10° NNE
BREEZE-M DEB (TANK) 4.1 09:54:29 10° WSW 09:58:01 75° NNW 10:11:00 10° NE
Cosmos 1607 4.2 09:54:46 10° NW 10:00:47 46° WSW 10:06:40 10° S
USA 267 4.3 09:57:45 10° NNE 10:03:35 36° NNW 10:09:25 10° W
NOSS 2-2 (C) 3.6 10:00:29 10° SW 10:03:40 37° NW 10:06:36 10° NNE
Cosmos 614 Rocket 4.3 10:01:28 10° NNW 10:06:36 71° ENE 10:11:39 10° SSE
Cosmos 1500 3.2 10:05:42 10° S 10:09:07 72° E 10:12:34 10° NNE
Cosmos 2278 Rocket 2.9 10:06:49 10° S 10:12:19 55° ESE 10:17:50 10° NNE
Meteor 2-2 Rocket 4.2 10:06:54 10° NNW 10:12:32 75° W 10:18:08 10° S
